When you browse on this site, cookies collect data to enhance your experience and personalize the content and advertising you see.
Visit our Privacy Policy to learn more. By continuing to use the site, you agree to this use of cookies and data.
  • In Hungary
  • List of Countries
  • For 7 days
  • Water Temperature
  • Weather Map
  • News
  • Weather Widgets
  • user-avatar
    Login

    Hourly Weather Columbus

    Today, 12 November, Tuesday

    Time Temperature Precipitation Wind Pressure Humidity
    00:00 +18°C° 0.1 mm 1 mps 754 mmHg 85%
    01:00 +17°C° 0.1 mm 2 mps 754 mmHg 87%
    02:00 +17°C° 0.1 mm 2 mps 753 mmHg 88%
    03:00 +17°C° 0.1 mm 2 mps 753 mmHg 90%
    04:00 +14°C° 3.8 mm 3 mps 753 mmHg 91%
    05:00 +13°C° 3.8 mm 5 mps 754 mmHg 91%
    06:00 +10°C° 3.8 mm 6 mps 755 mmHg 92%
    07:00 +8°C° 1.4 mm 6 mps 755 mmHg 91%
    08:00 +7°C° 1.4 mm 6 mps 756 mmHg 90%
    09:00 +5°C° 1.4 mm 5 mps 757 mmHg 88%
    10:00 +5°C° 0 mm 5 mps 757 mmHg 85%
    11:00 +5°C° 0 mm 5 mps 758 mmHg 81%
    12:00 +5°C° 0 mm 5 mps 758 mmHg 77%
    13:00 +6°C° 0 mm 5 mps 758 mmHg 69%
    14:00 +6°C° 0 mm 5 mps 758 mmHg 61%
    15:00 +7°C° 0 mm 5 mps 757 mmHg 54%
    16:00 +5°C° 0 mm 5 mps 758 mmHg 54%
    17:00 +3°C° 0 mm 5 mps 759 mmHg 55%
    18:00 +2°C° 0 mm 5 mps 759 mmHg 56%
    19:00 +1°C° 0 mm 4 mps 760 mmHg 57%
    20:00 0°C° 0 mm 4 mps 760 mmHg 58%
    21:00 -1°C° 0 mm 4 mps 760 mmHg 59%
    22:00 -2°C° 0 mm 4 mps 760 mmHg 59%
    23:00 -1°C° 0 mm 3 mps 761 mmHg 60%

    Tomorrow, 13 November, Wednesday

    Time Temperature Precipitation Wind Pressure Humidity
    00:00 -2°C° 0 mm 3 mps 761 mmHg 60%
    01:00 -2°C° 0 mm 3 mps 761 mmHg 61%
    02:00 -1°C° 0 mm 3 mps 761 mmHg 62%
    03:00 -1°C° 0 mm 3 mps 761 mmHg 62%
    04:00 -1°C° 0 mm 3 mps 761 mmHg 65%
    05:00 -1°C° 0 mm 3 mps 762 mmHg 67%
    06:00 -1°C° 0 mm 3 mps 762 mmHg 70%
    07:00 +1°C° 0 mm 3 mps 763 mmHg 61%
    08:00 +2°C° 0 mm 3 mps 763 mmHg 53%
    09:00 +3°C° 0 mm 4 mps 763 mmHg 44%
    10:00 +5°C° 0 mm 4 mps 763 mmHg 41%
    11:00 +7°C° 0 mm 3 mps 762 mmHg 38%
    12:00 +9°C° 0 mm 3 mps 762 mmHg 35%
    13:00 +9°C° 0 mm 3 mps 761 mmHg 36%
    14:00 +9°C° 0 mm 3 mps 761 mmHg 36%
    15:00 +10°C° 0 mm 3 mps 760 mmHg 37%
    16:00 +8°C° 0 mm 2 mps 761 mmHg 42%
    17:00 +6°C° 0 mm 2 mps 761 mmHg 48%
    18:00 +4°C° 0 mm 2 mps 761 mmHg 54%
    19:00 +4°C° 0 mm 2 mps 761 mmHg 54%
    20:00 +2°C° 0 mm 3 mps 762 mmHg 55%
    21:00 +2°C° 0 mm 3 mps 762 mmHg 56%
    22:00 +2°C° 0 mm 3 mps 762 mmHg 57%
    23:00 +2°C° 0 mm 3 mps 762 mmHg 59%

    Day after tomorrow, 14 November, Thursday

    Time Temperature Precipitation Wind Pressure Humidity
    00:00 +2°C° 0 mm 3 mps 762 mmHg 60%
    01:00 +3°C° 0 mm 2 mps 761 mmHg 61%
    02:00 +3°C° 0 mm 2 mps 761 mmHg 62%
    03:00 +3°C° 0 mm 2 mps 761 mmHg 63%
    04:00 +3°C° 0 mm 2 mps 761 mmHg 63%
    05:00 +4°C° 0 mm 2 mps 761 mmHg 64%
    06:00 +4°C° 0 mm 2 mps 761 mmHg 64%
    07:00 +5°C° 0 mm 2 mps 761 mmHg 64%
    08:00 +6°C° 0 mm 2 mps 761 mmHg 65%
    09:00 +7°C° 0 mm 3 mps 762 mmHg 65%
    10:00 +8°C° 0 mm 2 mps 761 mmHg 65%
    11:00 +9°C° 0 mm 2 mps 761 mmHg 65%
    12:00 +10°C° 0 mm 2 mps 760 mmHg 65%
    13:00 +10°C° 0 mm 2 mps 760 mmHg 66%
    14:00 +12°C° 0 mm 2 mps 760 mmHg 68%
    15:00 +12°C° 0 mm 2 mps 759 mmHg 69%
    16:00 +10°C° 0.6 mm 2 mps 759 mmHg 76%
    17:00 +9°C° 0.6 mm 2 mps 760 mmHg 84%
    18:00 +8°C° 0.6 mm 3 mps 760 mmHg 91%
    19:00 +7°C° 1.7 mm 2 mps 760 mmHg 92%
    20:00 +7°C° 1.7 mm 2 mps 760 mmHg 94%
    21:00 +7°C° 1.7 mm 2 mps 760 mmHg 95%
    22:00 +7°C° 1.1 mm 2 mps 759 mmHg 95%
    23:00 +7°C° 1.1 mm 2 mps 759 mmHg 95%

    15 November, Friday

    Time Temperature Precipitation Wind Pressure Humidity
    00:00 +7°C° 1.1 mm 3 mps 759 mmHg 95%
    01:00 +7°C° 1.3 mm 3 mps 758 mmHg 95%
    02:00 +7°C° 1.3 mm 3 mps 758 mmHg 95%
    03:00 +7°C° 1.3 mm 3 mps 757 mmHg 95%
    04:00 +7°C° 0.3 mm 3 mps 758 mmHg 95%
    05:00 +7°C° 0.3 mm 3 mps 758 mmHg 95%
    06:00 +8°C° 0.3 mm 3 mps 758 mmHg 95%
    07:00 +8°C° 0.2 mm 3 mps 758 mmHg 94%
    08:00 +8°C° 0.2 mm 3 mps 758 mmHg 94%
    09:00 +8°C° 0.2 mm 3 mps 758 mmHg 93%
    10:00 +8°C° 0.1 mm 3 mps 758 mmHg 92%
    11:00 +9°C° 0.1 mm 3 mps 757 mmHg 91%
    12:00 +9°C° 0.1 mm 2 mps 757 mmHg 91%
    13:00 +9°C° 0.1 mm 2 mps 757 mmHg 90%
    14:00 +10°C° 0.1 mm 2 mps 757 mmHg 89%
    15:00 +10°C° 0.1 mm 2 mps 756 mmHg 89%
    16:00 +10°C° 0.1 mm 2 mps 757 mmHg 89%
    17:00 +10°C° 0.1 mm 2 mps 757 mmHg 90%
    18:00 +9°C° 0.1 mm 2 mps 757 mmHg 91%
    19:00 +9°C° 0 mm 2 mps 757 mmHg 89%
    20:00 +9°C° 0 mm 2 mps 757 mmHg 87%
    21:00 +8°C° 0 mm 2 mps 758 mmHg 86%
    22:00 +8°C° 0 mm 2 mps 757 mmHg 86%
    23:00 +7°C° 0 mm 2 mps 757 mmHg 87%

    16 November, Saturday

    Time Temperature Precipitation Wind Pressure Humidity
    00:00 +6°C° 0 mm 2 mps 757 mmHg 87%
    01:00 +6°C° 0 mm 2 mps 757 mmHg 88%
    02:00 +6°C° 0 mm 2 mps 757 mmHg 89%
    03:00 +5°C° 0 mm 2 mps 757 mmHg 90%
    04:00 +5°C° 0 mm 2 mps 757 mmHg 90%
    05:00 +5°C° 0 mm 2 mps 757 mmHg 91%
    06:00 +5°C° 0 mm 2 mps 757 mmHg 91%
    07:00 +7°C° 0 mm 2 mps 758 mmHg 85%
    08:00 +9°C° 0 mm 3 mps 758 mmHg 78%
    09:00 +11°C° 0 mm 4 mps 759 mmHg 71%
    10:00 +12°C° 0 mm 3 mps 758 mmHg 63%
    11:00 +14°C° 0 mm 3 mps 758 mmHg 55%
    12:00 +17°C° 0 mm 2 mps 758 mmHg 48%
    13:00 +17°C° 0 mm 2 mps 757 mmHg 49%
    14:00 +16°C° 0 mm 2 mps 757 mmHg 51%
    15:00 +16°C° 0 mm 2 mps 756 mmHg 53%
    16:00 +14°C° 0 mm 2 mps 756 mmHg 60%
    17:00 +13°C° 0 mm 2 mps 757 mmHg 67%
    18:00 +10°C° 0 mm 2 mps 757 mmHg 74%
    19:00 +9°C° 0 mm 2 mps 757 mmHg 75%
    20:00 +8°C° 0 mm 2 mps 757 mmHg 76%
    21:00 +8°C° 0 mm 2 mps 758 mmHg 77%
    22:00 +7°C° 0 mm 2 mps 758 mmHg 75%
    23:00 +6°C° 0 mm 2 mps 758 mmHg 74%

    17 November, Sunday

    Time Temperature Precipitation Wind Pressure Humidity
    00:00 +6°C° 0 mm 2 mps 758 mmHg 72%
    01:00 +5°C° 0 mm 2 mps 757 mmHg 70%
    02:00 +4°C° 0 mm 2 mps 757 mmHg 68%
    03:00 +3°C° 0 mm 2 mps 757 mmHg 65%
    04:00 +3°C° 0 mm 2 mps 757 mmHg 66%
    05:00 +2°C° 0 mm 2 mps 757 mmHg 66%
    06:00 +2°C° 0 mm 2 mps 757 mmHg 67%
    07:00 +3°C° 0 mm 2 mps 757 mmHg 65%
    08:00 +4°C° 0 mm 2 mps 758 mmHg 63%
    09:00 +5°C° 0 mm 2 mps 758 mmHg 61%
    10:00 +8°C° 0 mm 2 mps 757 mmHg 58%
    11:00 +11°C° 0 mm 1 mps 756 mmHg 56%
    12:00 +13°C° 0 mm 1 mps 755 mmHg 53%
    13:00 +13°C° 0 mm 1 mps 755 mmHg 54%
    14:00 +12°C° 0 mm 0 mps 754 mmHg 54%
    15:00 +12°C° 0 mm 0 mps 753 mmHg 55%
    16:00 +11°C° 0 mm 0 mps 753 mmHg 62%
    17:00 +10°C° 0 mm 1 mps 753 mmHg 68%
    18:00 +8°C° 0 mm 1 mps 753 mmHg 75%
    19:00 +7°C° 0 mm 0 mps 753 mmHg 77%
    20:00 +6°C° 0 mm 0 mps 753 mmHg 79%
    21:00 +6°C° 0 mm 0 mps 753 mmHg 81%
    22:00 +5°C° 0 mm 0 mps 753 mmHg 81%
    23:00 +5°C° 0 mm 0 mps 753 mmHg 81%
    Show more